Aeroporto :
LOGIN :

Iscrizione | Disclaimer

   EN    FR    IT 

 










Sommario :    VFR   VFR Marginale   IFR   IFR Intensivo   IFR Molto Intensivo
Visibilità : 
Base nubi : 
>= 8 km
>= 3000ft
5 / 8 km
1000 / 3000 ft
1500m / 5 km
500 / 1000 ft
800 / 1500m
200 / 500 ft
< 800m
< 200 ft
Simboli :   Temporali  Nebbia  Neve Forte  Precipitazioni Forti  Vento > 20 kt
SIGMETs :   Varie  Temporali  Ghiacco  Turbolenza  Onda orograficha  Ceneri Vulcaniche






- Altitudine del aeroporto : 393 ft
- Codice IATA : TYF


ESST - Torsby

ULTIMO METAR :
  • 151120Z AUTO 12004KT 080V170 9999 -RA FEW012/// SCT019/// OVC036/// 16/14 Q1011 RESHUP

METARs OBSOLETI :
  • 151050Z AUTO 12005KT 070V170 9999 -DZ SCT013/// OVC033/// 16/14 Q1011 RERA
  • 151020Z AUTO 10004KT 070V130 9999 OVC023/// 16/14 Q1011
  • 150950Z AUTO 09005KT 040V130 9999 FEW013/// BKN020/// OVC026/// 16/14 Q1011
  • 150920Z AUTO 10004KT 070V140 9999 FEW018/// BKN024/// OVC030/// 16/14 Q1011

TAF N/A



MetMap, La meteo Aeronautica in un colpo d'occhio ! - Copyright ORBIFLY Dicembre 2007 - Disclaimer

ORBIFLY MET'MAP TEAM :

Programmazione e sviluppo : Alexandra Zaïnal
Concezione : Baudouin d'Aumeries
Aiuto per la programmazione : Marc-Olivier Méhu
Supporto tecnico e logistico : Manuel Goepfert
Aiuto per la traduzione : Arnaldo La Scala

Contatto : metmap@orbifly.com




FONTI E CREDITI :

   NOAA